Tracking 19638 objects as of 20-May-2019
HD Live streaming from Space Station
objects crossing your sky now

OPS 6392 (FLTSATCOM 2)

Track OPS 6392 (FLTSATCOM 2) now!
OPS 6392 (FLTSATCOM 2) is classified as:


NORAD ID: 11353
Int'l Code: 1979-038A
Perigee: 36,200.7 km
Apogee: 36,368.6 km
Inclination: 13.1 °
Period: 1,461.2 minutes
Semi major axis: 42655 km
RCS: 5.8553 m2 (large)
Launch date: May 4, 1979
Source: United States (US)
Launch site: AIR FORCE EASTERN TEST RANGE (AFETR)
aabbcc
Your satellite tracking list
Your tracking list is empty




NASA's NSSDC Master Catalog

Two Line Element Set (TLE):
1 11353U 79038A   19139.80277862 -.00000235  00000-0  00000+0 0  9993
2 11353  13.0572 326.0454 0019687  18.5997 157.7279  0.98545808144898
Source of the keplerian elements: AFSPC